2019-093B

Last updated on Mon Jan 20 2020 00:02:04 GMT+0000 (Coordinated Universal Time)

1 44880U 19093B 20019.51433167 .00000119 00000-0 22049-4 0 9990 2 44880 97.9738 96.4681 0015860 160.3803 199.8024 14.81362012 4492

Satellite not in orbit

2019-093B